www.pogodaiklimat.ru

Погода и климат >> Архив погоды >> Россия >> Краснодарский край >> Тамань


ПОГОДА в Тамани

  • Прогноз погоды в Тамани
  • Монитор погоды в Тамани
  • Климат города

АРХИВ ПОГОДЫ в Тамани

Время (UTC), дата Ветер
(напр.,м/с)
 
Видим.   Явления Облачность Т
(С)
Тd
(С)
f
(%)
Тe
(С)
Тes
(С)
Комфортность P
(гПа)
Po
(гПа)
Тmin
(С)
Tmax
(С)
R
(мм)
R24
(мм)
S
(см)
15 11.10 С 1 20 км 8/4 1000 м
[Sc Ac As]
+14.5 +10.9 79 +15 +15 1021.5 1019.6 +17.8
18 11.10 СЗ 2 10 км 4/0
[Ac trans]
+13.5 +10.8 84 +13 +13 1022.2 1020.3
21 11.10 СЗ 2 10 км 4/3 1000 м
[Sc Ci fib]
+13.4 +10.8 84 +13 +13 1021.9 1020.0
00 12.10 СЗ 2 10 км 3/0
[Ci fib]
+12.7 +9.7 82 +12 +12 1022.2 1020.3
03 12.10 З 1 10 км 8/8 1000 м
[Sc]
+11.2 +8.6 84 +11 +11 1022.3 1020.3 +10.5
06 12.10 СЗ 2 20 км 9/1 1000 м
[Cu hum Ac trans Ci fib]
+14.2 +10.2 77 +14 +15 1022.8 1020.9 +8.1
09 12.10 З 3 20 км 5/0
[Ac trans Ci fib]
+16.5 +5.5 48 +16 +21 1023.0 1021.1
12 12.10 ЮЗ 5 20 км 8/0
[Ac trans Cs]
+17.6 +7.1 50 +17 +19 1022.2 1020.3
15 12.10 ЮЗ 3 20 км 5/0
[Ac trans Ci fib]
+15.9 +8.4 61 +16 +16 1022.4 1020.5 +18.1
18 12.10 ЮЗ 3 10 км 6/0
[Ac trans Ci fib]
+15.6 +9.2 66 +15 +15 1022.4 1020.5
21 12.10 ЮЗ 2 10 км 6/0
[Ac trans]
+14.1 +10.9 81 +14 +14 1022.3 1020.4
00 13.10 ЮЗ 2 10 км 4/0
[Ac trans]
+12.6 +8.9 78 +12 +12 1021.6 1019.7
03 13.10 Ю 2 10 км 3/0
[Ac lent]
+10.3 +8.1 86 +9 +9 1021.3 1019.4 +10.1
06 13.10 ЮЗ 3 20 км 3/3 1000 м
[Cu med, cong]
+17.6 +10.9 65 +18 +19 1021.1 1019.2 +9.3
09 13.10 ЮЗ 5
{10}
20 км в посл. час ливневой дождь 8/8 600 м
[Cb calv]
+18.6 +12.2 66 +19 +20 1020.1 1018.2
12 13.10 ЮЗ 6-11
{12}
20 км 8/4 600 м
[Cu med, cong Cc]
+18.3 +11.5 65 +18 +19 1019.1 1017.2
15 13.10 ЮЗ 5
{12}
20 км 8/3 600 м
[Cu med, cong Ac trans Ci fib]
+16.8 +11.1 69 +16 +16 1018.0 1016.1 +19.6 1
18 13.10 ЮЗ 4
{10}
10 км 8/4 600 м
[Cu med, cong Ac cuf Ci fib]
+16.9 +11.9 72 +16 +16 1017.2 1015.3
21 13.10 З 3
{11}
10 км в посл. час ливневой дождь 10/10 600 м
[Cb calv]
+15.4 +13.3 87 +15 +15 1015.9 1014.0
00 14.10 С 2
{10}
10 км слабый ливневой дождь 10/8 600 м
[Cu med, cong Ac As]
+13.4 +11.7 89 +13 +13 1015.4 1013.4
03 14.10 С 2 10 км 10/10 600 м
[Cu med, cong]
+13.3 +10.5 83 +13 +13 1016.1 1014.2 +13.1 5
06 14.10 СЗ 3 20 км 3/0
[Ac trans Ci fib]
+12.9 +9.4 79 +12 +13 1017.5 1015.6 +12.6
09 14.10 СЗ 2 20 км ясно +15.6 +7.6 59 +16 +23 1017.6 1015.6
12 14.10 З 4 20 км 6/0
[Ac trans Ci fib]
+15.5 +6.9 57 +15 +17 1017.6 1015.6
15 14.10 З 4 20 км 10/10 600 м
[Cu med, cong]
+14.3 +7.4 63 +13 +13 1017.6 1015.7 +16.1
18 14.10 З 5 10 км 10/10 600 м
[Cb calv]
+14.0 +8.6 70 +12 +12 1018.2 1016.3
21 14.10 З 6-11
{11}
10 км 10/10 600 м
[Sc diur, vesp]
+12.6 +9.7 82 +10 +10 1018.2 1016.3
00 15.10 СЗ 4
{11}
10 км {ливн. осадки} 10/10 600 м
[Cu Sc]
+11.9 +9.1 83 +10 +10 1018.1 1016.2
03 15.10 СЗ 4
{10}
10 км 10/10 600 м
[Frnb]
+11.6 +5.1 64 +10 +10 1019.5 1017.6 +11.4 1
06 15.10 СЗ 3
{10}
20 км 8/8 300 м
[Sc]
+11.6 +5.9 68 +10 +10 1020.6 1018.6 +11.4
09 15.10 З 5 20 км 4/4 1000 м
[Cu med, cong]
+13.6 +5.1 56 +12 +14 1020.8 1018.9
12 15.10 З 4
{10}
20 км 10/9 600 м
[Sc As op]
+14.7 +7.2 61 +14 +14 1019.1 1017.2
15 15.10 ЮЗ 5
{12}
20 км 10/8 600 м
[Sc As op]
+15.5 +9.4 67 +14 +14 1016.8 1014.9 +15.5
18 15.10 З 5-10
{12}
10 км 10/10 600 м
[Sc]
+15.5 +12.7 83 +14 +14 1015.5 1013.6
21 15.10 З 8-13
{14}
10 км 10/10 600 м
[Sc]
+16.6 +13.0 79 +15 +15 1013.9 1012.0
00 16.10 С 5
{14}
10 км в посл. час дождь 10/10 1000 м
[Sc]
+13.9 +10.7 81 +12 +12 1014.7 1012.8
03 16.10 С 5
{11}
10 км 6/6 1000 м
[Cu med, cong]
+12.9 +8.9 77 +11 +11 1016.6 1014.7 +12.9 2
06 16.10 С 6-12
{13}
20 км 8/5 600 м
[Cu med, cong Ci fib]
+12.9 +7.5 70 +11 +11 1018.3 1016.3 +12.6
09 16.10 С 6-11
{14}
20 км 9/8 600 м
[Cu med, cong Ci fib]
+13.4 +6.9 65 +11 +12 1020.1 1018.2
12 16.10 С 4
{13}
20 км 9/8 600 м
[Cu med, cong Ci fib]
+13.4 +7.0 65 +12 +12 1021.4 1019.4
15 16.10 С 3 20 км 6/5 600 м
[Cu med, cong Ci fib]
+13.6 +7.6 67 +13 +13 1021.8 1019.8 +13.6
18 16.10 СЗ 3 10 км 6/5 600 м
[Cu med, cong Ci fib]
+13.9 +8.2 68 +13 +13 1022.8 1020.8
21 16.10 З 2 10 км 6/6 600 м
[Cu med, cong]
+13.2 +8.9 75 +13 +13 1023.5 1021.6
00 17.10 З 4 10 км 5/3 600 м
[Cu med, cong Ac trans]
+12.4 +9.5 82 +10 +10 1023.3 1021.3
03 17.10 З 4 10 км 4/3 600 м
[Cu med, cong Ci fib]
+12.2 +10.0 86 +10 +10 1023.2 1021.3
06 17.10 З 4 20 км 1/0
[Ci fib]
+14.2 +10.6 79 +13 +14 1023.3 1021.3
09 17.10 З 4
{10}
20 км ясно +19.2 +10.9 59 +20 +25 1022.8 1020.9
12 17.10 ЮЗ 4 20 км ясно +20.8 +12.8 60 +23 +26 комфорт 1021.6 1019.7
15 17.10 ЮЗ 2 20 км ясно +17.9 +14.0 78 +18 +18 1021.2 1019.3 +21.5
18 17.10 ЮЗ 2 10 км ясно +15.7 +12.3 80 +16 +16 1022.1 1020.2
21 17.10 З 3 10 км 6/0
[Ci sp]
+15.8 +12.4 80 +15 +15 1022.2 1020.3
00 18.10 Ю 1 10 км 5/0
[Ci sp]
+14.8 +13.0 89 +15 +15 1022.5 1020.6
03 18.10 СЗ 1 4000 м дымка 4/0
[Ci sp]
+12.8 +11.5 92 +13 +13 1022.7 1020.8 +12.5
06 18.10 С 1 4000 м дымка 10/10 600 м
[Cu hum]
+14.7 +13.6 93 +15 +15 1023.9 1022.0
09 18.10 СВ 1 10 км 10/10 600 м
[Cu hum]
+15.3 +12.9 86 +16 +16 1023.6 1021.7

 

Местоположение метеостанции Тамань (Краснодарский край, Россия): широта 45.22 долгота 36.72 высота над уровнем моря 17 м.

В архиве по умолчанию представлена погода в Тамани за последнюю неделю. Архивные данные за месяц целиком и за предыдущие месяцы, начиная с января 2011 года, Вы можете получить, выбрав интересующий диапазон дат из раскрывающегося списка и нажав кнопку "Ввод!".

Внимание! Время в таблицах - всемирное. Для получения местного времени необходимо прибавить поправку, которая в Тамани равна 3 ч.

Смотрите также архив погоды в соседних городах и на ближайших метеорологических станциях:

Погода в Керчи (Крым, Россия) (28 км)
Погода в Темрюке (Краснодарский край, Россия) (53 км)
Погода в Анапе (Краснодарский край, Россия) (58 км)
Погода на Мысовом (Крым, Россия) (75 км)
Погода в Новороссийске (Краснодарский край, Россия) (105 км)
Погода в Крымске (Краснодарский край, Россия) (106 км)
Погода в Феодосии (Крым, Россия) (107 км)
Погода в Славянске-на-Кубани (Краснодарский край, Россия) (110 км)
Погода в Геленджике (Краснодарский край, Россия) (129 км)
Погода в Приморско-Ахтарске (Краснодарский край, Россия) (143 км)

Пояснения к столбцам:

Ветер - указаны скорость ветра в м/с - средняя за 10 мин, порывы в срок и между сроками (в фигурных скобках) и направление, откуда дует ветер: С - северный, СВ - северо-восточный, В - восточный, ЮВ - юго-восточный, Ю - южный, ЮЗ - юго-западный, З - западный, СЗ - северо-западный.
Видимость - горизонтальная дальность видимости в метрах или километрах. При видимости от 1 до 10 км при отсутствии осадков обычно наблюдается дымка, при ухудшении видимости до 1 км и менее - туман. В сухую погоду видимость может ухудшаться дымом, пылью или мглою.
Явления - указаны атмосферные явления, наблюдавшиеся в срок или в последний час перед сроком; фигурными скобками обозначены явления, наблюдавшиеся между сроками (за 1-3 часа до срока); квадратными скобками обозначены град или гололедные отложения с указанием их диаметра в мм.
Облачность - указаны через наклонную черту общая и нижняя облачность в баллах и высота нижней границы облаков в метрах; квадратными скобками обозначены формы облаков: Ci - перистые, Cs - перисто-слоистые, Cc - перисто-кучевые, Ac - высококучевые, As - высокослоистые, Sc - слоисто-кучевые, Ns - слоисто-дождевые, Cu - кучевые, Cb - кучево-дождевые. Подробнее классификацию облаков см. в Атласе облаков (PDF).
T - Температура воздуха - температура, измеренная на высоте 2 м над землей.
Td - Температура точки росы - температура, при понижении до которой содержащийся в воздухе водяной пар достигнет насыщения.
f - Относительная влажность воздуха - влажноcть воздуха, измеренная на высоте 2 м над землей.
Te - Эффективная температура - температура, которую ощущает одетый по сезону человек в тени. Характеристика душности погоды. При расчете учитывается влияние влажности воздуха и скорости ветра на теплоощущения человека.
Tes - Эффективная температура на солнце - температура, которую ощущает человек, с поправкой на солнечный нагрев. Характеристика знойности погоды. Зависит от высоты солнца над горизонтом, облачности и скорости ветра. Ночью, в пасмурную погоду, а также при ветре 12 м/с и более поправка равна нулю.
P - Атмосферное давление - приведенное к уровню моря атмосферное давление.
Po - Атмосферное давление - измеренное на уровне метеостанции атмосферное давление.
Tmin - Минимальная температура - минимум температуры воздуха на высоте 2 м над землей.
Tmax - Максимальная температура - максимум температуры воздуха на высоте 2 м над землей.
R - Количество осадков - Количество выпавших осадков за период времени, мм. При наведении курсора мыши на число - период времени, за который выпало указанное количество осадков.
R24 - Количество осадков - Количество выпавших осадков за 24 часа, мм.
S - Снежный покров - Высота снежного покрова, см. При наведении курсора мыши на число - состояние снежного покрова и степень покрытия местности в баллах.